This is the latest recevied weather packets stored in our database for station/object N4DWK. If no packets are shown the sender has not sent any weather packets the latest 10 day(s).
| Time | Temp. | Humidity | Pressure | Rain* | Wind** | Luminosity | Snow |
|---|---|---|---|---|---|---|---|
| 1778157005 | 13.89° C | 89% | 1011.9 hPa | 0 mm | - | 21 W/m² | - |
| 1778156704 | 13.89° C | 89% | 1011.9 hPa | 0 mm | - | 25 W/m² | - |
| 1778156405 | 13.89° C | 89% | 1011.9 hPa | 0 mm | - | 19 W/m² | - |
| 1778156105 | 13.89° C | 89% | 1011.6 hPa | 0 mm | - | 18 W/m² | - |
| 1778155805 | 13.89° C | 89% | 1011.6 hPa | 0 mm | - | 23 W/m² | - |
| 1778155505 | 13.33° C | 89% | 1011.5 hPa | 0 mm | - | 23 W/m² | - |
| 1778155206 | 13.33° C | 88% | 1011.6 hPa | 0 mm | - | 19 W/m² | - |
| 1778154905 | 13.33° C | 88% | 1011.7 hPa | 0 mm | - | 18 W/m² | - |
| 1778154605 | 13.33° C | 88% | 1011.8 hPa | 0 mm | - | 14 W/m² | - |
| 1778154306 | 13.33° C | 88% | 1011.8 hPa | 0 mm | - | 12 W/m² | - |
| 1778154005 | 13.33° C | 89% | 1011.8 hPa | 0 mm | - | 14 W/m² | - |
| 1778153705 | 13.33° C | 88% | 1011.8 hPa | 0 mm | - | 12 W/m² | - |
| 1778153404 | 13.33° C | 89% | 1011.7 hPa | 0 mm | - | 14 W/m² | - |
| 1778153104 | 13.33° C | 89% | 1011.5 hPa | 0 mm | - | 12 W/m² | - |
| 1778152804 | 13.33° C | 89% | 1011.4 hPa | 0 mm | - | 11 W/m² | - |
| 1778152506 | 12.78° C | 90% | 1011.3 hPa | 0 mm | - | 11 W/m² | - |
| 1778152205 | 12.78° C | 90% | 1011.1 hPa | 0 mm | - | 9 W/m² | - |
| 1778151904 | 12.78° C | 91% | 1011.4 hPa | 0 mm | - | 5 W/m² | - |
| 1778151604 | 12.78° C | 91% | 1011.5 hPa | 0 mm | - | 5 W/m² | - |
| 1778151305 | 12.78° C | 91% | 1011.3 hPa | 0 mm | - | 5 W/m² | - |
| 1778151005 | 12.78° C | 91% | 1011.2 hPa | 0 mm | - | 5 W/m² | - |
| 1778150704 | 12.78° C | 91% | 1011.1 hPa | 0 mm | - | 0 W/m² | - |
| 1778150405 | 12.78° C | 92% | 1011 hPa | 0 mm | - | 0 W/m² | - |
| 1778150104 | 12.78° C | 92% | 1011 hPa | 0 mm | - | 0 W/m² | - |
| 1778149806 | 12.78° C | 92% | 1010.8 hPa | 0 mm | - | 0 W/m² | - |
* Rain latest hour (hover to see other rain measurements)
** Current wind speed in m/s (hover to see current wind gust speed)